[[{"header":{"parameterUnit":"m.s-1","parameterCategory":1,"la1":30.2991,"la2":30.254,"lo1":-89.0895,"lo2":-89.0444,"dy":0.0017,"dx":0.0017,"nx":28,"ny":28,"refTime":"2025-04-30T21:00:00:Z","depth":0,"parameterNumber":2,"parameterNumberName":"U-component_of_WINDS"},"data":[0,0,0,0,0,0,0,0,0,0,0,0,0,0,0,0,0,0,0,0,0,0,0,0,0,0,0,0,0,0,0,0,0,0,0,0,0,0,0,0,0,0,0,0,0,0,0,0,0,0,0,0,0,0,0,0,0,0,-2.6215,-2.6215,0,-2.6239,-2.624,-2.624,-2.6227,-2.6227,-2.6226,-2.6225,-2.6251,-2.6252,-2.6253,0,0,0,0,0,0,0,0,0,0,0,0,0,-2.6158,-2.6159,-2.6215,-2.6215,-2.6215,-2.6239,-2.624,-2.624,-2.6227,-2.6226,-2.6226,-2.6225,-2.625,-2.6252,-2.6253,0,0,0,0,0,0,0,0,0,0,0,0,0,-2.6183,-2.616,-2.6215,-2.6212,-2.6212,-2.6239,-2.624,-2.624,-2.6227,-2.6226,-2.6225,-2.6225,-2.625,-2.6252,-2.6254,-2.6285,0,0,-2.626,-2.626,0,0,0,0,0,0,0,0,-2.6181,-2.6185,-2.6212,-2.6212,-2.6212,-2.6229,-2.6229,-2.6255,-2.6228,-2.6222,-2.6225,-2.6224,-2.6244,-2.6247,-2.6254,-2.6286,-2.6288,-2.626,-2.6261,-2.6262,-2.6262,0,0,0,0,0,0,0,-2.618,-2.6184,-2.6224,-2.6212,-2.6212,-2.621,-2.6212,-2.6234,-2.6238,-2.6222,-2.6221,-2.6224,-2.6244,-2.6252,-2.6254,-2.6288,-2.626,-2.6261,-2.6263,-2.6263,-2.6349,-2.635,0,0,0,0,0,0,-2.6178,-2.6182,-2.6224,-2.6225,-2.6194,-2.6212,-2.6214,-2.6225,-2.6238,-2.6239,-2.6225,-2.6224,-2.6249,-2.6252,-2.6255,-2.6293,-2.6262,-2.6264,-2.6265,-2.6348,-2.635,-2.6351,0,0,0,0,0,0,-2.6177,-2.6182,-2.6223,-2.6204,-2.6209,-2.6214,-2.6225,-2.6226,-2.6233,-2.624,-2.6241,-2.6232,-2.6248,-2.6252,-2.6278,-2.6294,-2.6264,-2.6266,-2.6347,-2.6349,-2.635,-2.637,0,0,0,0,0,0,-2.6175,-2.6181,-2.6193,-2.6204,-2.621,-2.6245,-2.6226,-2.6227,-2.6236,-2.6235,-2.6247,-2.6248,-2.6248,-2.6275,-2.628,-2.6296,-2.6268,-2.6346,-2.6348,-2.635,-2.6368,-2.6372,-2.6375,0,0,0,0,0,-2.6173,-2.6197,-2.6194,-2.6199,-2.6224,-2.6246,-2.6249,-2.6248,-2.6238,-2.625,-2.6255,-2.6247,-2.6292,-2.6278,-2.6283,-2.63,-2.6344,-2.6347,-2.635,-2.6366,-2.6371,-2.6375,0,0,0,0,0,0,-2.6188,-2.6199,-2.6195,-2.6223,-2.6234,-2.6244,-2.6258,-2.6254,-2.6268,-2.6266,-2.6265,-2.6268,-2.6294,-2.63,-2.6285,-2.6332,-2.6316,-2.632,-2.6327,-2.6332,-2.6336,-2.6334,-2.6269,0,0,0,0,0,-2.6194,-2.6211,-2.6219,-2.6244,-2.6249,-2.6253,-2.6262,-2.6261,-2.6272,-2.6277,-2.6283,-2.6295,-2.6311,-2.6322,-2.6338,-2.6369,-2.6372,-2.6383,-2.6387,-2.639,-2.6393,-2.6411,-2.6416,-2.6359,-2.6359,-2.6359,0,0,-2.6208,-2.6216,-2.6226,-2.6247,-2.6255,-2.6272,-2.6257,-2.6276,-2.6289,-2.628,-2.6304,-2.631,-2.6323,-2.6352,-2.6365,-2.6357,-2.641,-2.6394,-2.6396,-2.6397,-2.6414,-2.642,-2.6424,-2.6361,-2.6361,-2.636,0,0,-2.6241,-2.6249,-2.627,-2.6279,-2.6291,-2.6294,-2.6299,-2.6311,-2.6314,-2.6339,-2.6333,-2.6349,-2.6377,-2.6387,-2.6395,-2.6435,-2.6429,-2.644,-2.646,-2.6477,-2.6482,-2.6486,-2.65,-2.6505,-2.6443,-2.6443,-2.6443,0,-2.6256,-2.6282,-2.6281,-2.6301,-2.6311,-2.6304,-2.6326,-2.6334,-2.6352,-2.6359,-2.635,-2.6387,-2.6395,-2.6426,-2.6436,-2.6443,-2.6449,-2.6438,-2.6481,-2.6485,-2.6489,-2.6502,-2.6508,-2.6444,-2.6444,-2.6444,-2.6444,0,-2.63,-2.6318,-2.6334,-2.6351,-2.6362,-2.6383,-2.6386,-2.6398,-2.6397,-2.6401,-2.6427,-2.6437,-2.6455,-2.6462,-2.6461,-2.6494,-2.6489,-2.6481,-2.6465,-2.6495,-2.6508,-2.6513,-2.6446,-2.6446,-2.6445,-2.6445,0,0,-2.6342,-2.6359,-2.6365,-2.6373,-2.6387,-2.6402,-2.6423,-2.644,-2.6451,-2.6464,-2.6482,-2.6507,-2.65,-2.651,-2.6509,-2.6525,-2.6556,-2.6515,-2.6515,-2.6522,-2.6594,-2.6599,-2.6605,-2.6552,-2.6553,-2.6554,-2.6592,0,-2.6376,-2.6412,-2.6413,-2.6446,-2.6464,-2.6458,-2.6477,-2.6488,-2.6493,-2.6509,-2.6514,-2.6532,-2.6521,-2.6527,-2.6543,-2.6549,-2.657,-2.6546,-2.6569,-2.657,-2.6565,-2.6612,-2.6617,-2.6653,-2.6597,-2.6598,-2.6599,0,-2.642,-2.6435,-2.647,-2.6483,-2.649,-2.6506,-2.6523,-2.6538,-2.6552,-2.6554,-2.6566,-2.6564,-2.6587,-2.6571,-2.6602,-2.6586,-2.6596,-2.6601,-2.6602,-2.6604,-2.6586,-2.6614,-2.6664,-2.6669,-2.6607,-2.6606,-2.6605,0,-2.6447,-2.6475,-2.65,-2.6507,-2.6523,-2.6535,-2.6542,-2.6554,-2.6565,-2.6581,-2.6588,-2.6606,-2.6615,-2.6629,-2.6632,-2.6621,-2.6664,-2.6648,-2.6667,-2.6667,-2.6675,-2.6675,-2.6727,-2.6683,-2.6683,-2.6683,-2.6682,0,-2.6485,-2.6507,-2.6513,-2.6528,-2.6552,-2.6554,-2.6579,-2.6585,-2.6596,-2.6613,-2.661,-2.6627,-2.663,-2.6647,-2.665,-2.6676,-2.668,-2.6683,-2.6684,-2.6683,-2.6683,-2.6689,-2.6687,-2.6684,-2.6684,-2.6683,-2.6683,0,-2.6519,-2.6523,-2.655,-2.6563,-2.6567,-2.6585,-2.6596,-2.6611,-2.6617,-2.6638,-2.6643,-2.6651,-2.6672,-2.6677,-2.6701,-2.6703,-2.6733,-2.6731,-2.6728,-2.6728,-2.6746,-2.6745,-2.6804,-2.6812,-2.6763,-2.6763,-2.6764,0,-2.6542,-2.6559,-2.6574,-2.6585,-2.6593,-2.6611,-2.6622,-2.6625,-2.6637,-2.6654,-2.6668,-2.6687,-2.6703,-2.6736,-2.6744,-2.6763,-2.6762,-2.6781,-2.6764,-2.6764,-2.6762,-2.6761,-2.6763,-2.6784,-2.6785,-2.6785,-2.6786,0,-2.6583,-2.6585,-2.6602,-2.6619,-2.6633,-2.6647,-2.666,-2.667,-2.6675,-2.6689,-2.6709,-2.6722,-2.6747,-2.6767,-2.6786,-2.6794,-2.6791,-2.6791,-2.6796,-2.6796,-2.6793,-2.6795,-2.6737,-2.6789,-2.6789,-2.6789,-2.6789,-2.6788,-2.6613,-2.6628,-2.6641,-2.6659,-2.667,-2.6683,-2.6698,-2.6705,-2.6722,-2.6743,-2.6744,-2.6766,-2.6781,-2.6806,-2.6815,-2.6834,-2.6828,-2.6835,-2.6837,-2.6839,-2.684,-2.6791,-2.6837,-2.6837,-2.6837,-2.6837,-2.6837,0,-2.6654,-2.6663,-2.668,-2.6699,-2.6714,-2.671,-2.6725,-2.6738,-2.6757,-2.6771,-2.6787,-2.6811,-2.6831,-2.6841,-2.6861,-2.6874,-2.6873,-2.6879,-2.6878,-2.688,-2.6845,-2.6838,-2.6879,-2.6879,-2.6879,-2.6879,-2.6879,-2.6879,-2.6677,-2.6702,-2.6706,-2.6737,-2.6745,-2.6767,-2.6776,-2.6788,-2.6799,-2.6826,-2.6843,-2.685,-2.6862,-2.6883,-2.6902,-2.6904,-2.6912,-2.6918,-2.692,-2.6887,-2.6882,-2.6878,-2.6872,-2.692,-2.692,-2.6954,-2.6955,-2.6955]},{"header":{"parameterUnit":"m.s-1","parameterCategory":1,"la1":30.2991,"la2":30.254,"lo1":-89.0895,"lo2":-89.0444,"dy":0.0017,"dx":0.0017,"nx":28,"ny":28,"refTime":"2025-04-30T21:00:00:Z","depth":0,"parameterNumber":3,"parameterNumberName":"V-component_of_WINDS"},"data":[0,0,0,0,0,0,0,0,0,0,0,0,0,0,0,0,0,0,0,0,0,0,0,0,0,0,0,0,0,0,0,0,0,0,0,0,0,0,0,0,0,0,0,0,0,0,0,0,0,0,0,0,0,0,0,0,0,0,5.5979,5.5979,0,5.5969,5.5969,5.5969,5.596,5.596,5.596,5.596,5.5946,5.5946,5.5946,0,0,0,0,0,0,0,0,0,0,0,0,0,5.599,5.599,5.5979,5.5979,5.5979,5.5969,5.5969,5.5969,5.596,5.596,5.596,5.596,5.5946,5.5946,5.5946,0,0,0,0,0,0,0,0,0,0,0,0,0,5.5983,5.599,5.5979,5.5974,5.5973,5.5969,5.5969,5.5969,5.596,5.596,5.596,5.5959,5.5947,5.5946,5.5946,5.5946,0,0,5.5945,5.5944,0,0,0,0,0,0,0,0,5.5983,5.5983,5.5975,5.5974,5.5973,5.5966,5.5968,5.5961,5.596,5.5965,5.596,5.5959,5.5953,5.5952,5.595,5.5945,5.5945,5.5945,5.5944,5.5944,5.5944,0,0,0,0,0,0,0,5.5984,5.5983,5.5975,5.5974,5.5974,5.5971,5.597,5.5967,5.596,5.5964,5.5964,5.5963,5.5952,5.595,5.595,5.5945,5.5945,5.5944,5.5944,5.5944,5.5941,5.5941,0,0,0,0,0,0,5.5986,5.5984,5.5976,5.5975,5.5978,5.5971,5.597,5.5968,5.596,5.5958,5.5963,5.5962,5.5951,5.595,5.5949,5.5949,5.5944,5.5944,5.5943,5.5941,5.5941,5.5941,0,0,0,0,0,0,5.5986,5.5985,5.5976,5.5979,5.5978,5.5971,5.5969,5.5968,5.5966,5.5959,5.5957,5.5962,5.5951,5.595,5.5947,5.5949,5.5944,5.5943,5.594,5.5941,5.5941,5.595,0,0,0,0,0,0,5.5986,5.5985,5.5986,5.5979,5.5978,5.5975,5.5969,5.5968,5.5966,5.5965,5.5958,5.5956,5.5951,5.5948,5.5947,5.5948,5.5943,5.594,5.594,5.5941,5.5949,5.595,5.5951,0,0,0,0,0,5.5987,5.5988,5.5986,5.5985,5.5978,5.5975,5.5974,5.5968,5.5966,5.5966,5.5961,5.5956,5.5949,5.5948,5.5947,5.5948,5.594,5.594,5.5941,5.5949,5.595,5.5951,0,0,0,0,0,0,5.5993,5.5987,5.5984,5.5983,5.598,5.5973,5.5973,5.597,5.5966,5.5965,5.5958,5.5957,5.5955,5.5951,5.595,5.5948,5.5944,5.5944,5.595,5.5951,5.5952,5.5953,5.5943,0,0,0,0,0,5.5995,5.5993,5.5987,5.5987,5.5986,5.598,5.5978,5.5975,5.597,5.5968,5.5963,5.5959,5.5956,5.5953,5.595,5.5949,5.5947,5.5949,5.595,5.5951,5.5951,5.595,5.5951,5.5942,5.5942,5.5942,0,0,5.5997,5.5994,5.5993,5.5989,5.5985,5.5984,5.5979,5.5977,5.5975,5.5968,5.5966,5.5962,5.5956,5.5955,5.5954,5.5951,5.5953,5.5951,5.5952,5.5951,5.5951,5.5952,5.5952,5.5942,5.5942,5.5942,0,0,5.6001,5.5999,5.5998,5.5996,5.5992,5.5988,5.5988,5.5982,5.598,5.5978,5.5972,5.597,5.5965,5.5961,5.5959,5.5963,5.5958,5.5962,5.5966,5.5966,5.5967,5.5967,5.5969,5.5969,5.5962,5.5962,5.5962,0,5.6005,5.6003,5.5998,5.5997,5.5996,5.599,5.599,5.5987,5.5982,5.598,5.5978,5.5972,5.5968,5.5965,5.5967,5.5965,5.5964,5.5962,5.5967,5.5968,5.5968,5.5969,5.597,5.5963,5.5963,5.5962,5.5962,0,5.6008,5.6006,5.6007,5.6003,5.6001,5.6,5.5995,5.5994,5.5991,5.5987,5.5985,5.5981,5.5976,5.5976,5.5972,5.5973,5.5972,5.5969,5.5964,5.597,5.5971,5.5971,5.5963,5.5963,5.5963,5.5963,0,0,5.6014,5.6009,5.6009,5.6008,5.6003,5.6002,5.6001,5.5998,5.5997,5.5993,5.5992,5.5989,5.5986,5.5983,5.5979,5.5979,5.5983,5.5976,5.5975,5.5977,5.5984,5.5986,5.5987,5.598,5.598,5.5981,5.5984,0,5.6018,5.6016,5.6013,5.6012,5.6011,5.6007,5.6006,5.6003,5.6,5.5998,5.5995,5.5992,5.5989,5.5987,5.5987,5.5983,5.5984,5.5982,5.5979,5.5979,5.598,5.5988,5.599,5.5993,5.5985,5.5985,5.5985,0,5.6021,5.6019,5.6019,5.6015,5.6014,5.6014,5.6011,5.601,5.6006,5.6004,5.6002,5.5998,5.5997,5.5993,5.5991,5.599,5.5989,5.5987,5.5987,5.5985,5.5982,5.5986,5.5995,5.5995,5.5986,5.5986,5.5986,0,5.6026,5.6023,5.6023,5.6022,5.6017,5.6017,5.6015,5.6012,5.601,5.6008,5.6007,5.6004,5.6002,5.6,5.5995,5.5994,5.5994,5.599,5.5992,5.5992,5.5991,5.5991,5.5999,5.5991,5.5991,5.5991,5.5991,0,5.6029,5.6029,5.6025,5.6025,5.6025,5.6021,5.6021,5.6018,5.6016,5.6015,5.601,5.6009,5.6004,5.6002,5.5999,5.5997,5.5997,5.5995,5.5994,5.5995,5.5995,5.5993,5.5992,5.5991,5.5991,5.5991,5.5991,0,5.6035,5.6032,5.6031,5.6028,5.6027,5.6027,5.6024,5.6023,5.602,5.6019,5.6019,5.6014,5.6012,5.6008,5.6004,5.6002,5.6001,5.6,5.6003,5.6002,5.6004,5.6004,5.601,5.6011,5.6003,5.6003,5.6003,0,5.6037,5.6037,5.6034,5.6033,5.6032,5.6031,5.603,5.6026,5.6025,5.6022,5.6022,5.602,5.6018,5.6014,5.6011,5.6008,5.6006,5.6009,5.6005,5.6007,5.6006,5.6006,5.6006,5.6009,5.6009,5.6009,5.6009,0,5.6041,5.604,5.6039,5.6038,5.6037,5.6035,5.6033,5.6033,5.6029,5.6028,5.6026,5.6025,5.6022,5.602,5.6017,5.6015,5.6011,5.6011,5.6011,5.6012,5.6013,5.6012,5.6004,5.601,5.601,5.601,5.601,5.601,5.6045,5.6045,5.6043,5.6042,5.6041,5.6039,5.6039,5.6037,5.6035,5.6033,5.6031,5.603,5.6027,5.6023,5.6021,5.602,5.6018,5.6018,5.6018,5.6018,5.6019,5.6014,5.6019,5.6019,5.6019,5.6019,5.6019,0,5.6049,5.6048,5.6047,5.6045,5.6045,5.6043,5.6041,5.604,5.6039,5.6037,5.6036,5.6034,5.6032,5.6029,5.6027,5.6026,5.6025,5.6026,5.6026,5.6025,5.602,5.602,5.6027,5.6027,5.6027,5.6027,5.6027,5.6027,5.6051,5.6051,5.605,5.6049,5.6048,5.6047,5.6046,5.6045,5.6043,5.6042,5.6041,5.6039,5.6036,5.6034,5.6033,5.6032,5.6031,5.6032,5.6031,5.6026,5.6025,5.6025,5.6025,5.6032,5.6032,5.6036,5.6036,5.6036]}]]